www.pogodaiklimat.ru

Погода и климат >> Архив погоды >> Антарктида >> Bernardo o`Higgins


ПОГОДА в Bernardo o`Higgins

  • Прогноз погоды в Bernardo o`Higgins
  • Монитор погоды в Bernardo o`Higgins
  • Климат города

АРХИВ ПОГОДЫ в Bernardo o`Higgins

Время (UTC), дата Ветер
(напр.,м/с)
 
Видим.   Явления Облачность Т
(С)
Тd
(С)
f
(%)
Тe
(С)
Тes
(С)
Комфортность P
(гПа)
Po
(гПа)
Тmin
(С)
Tmax
(С)
R
(мм)
R24
(мм)
S
(см)
15 12.12 В 4 5000 м дымка {туман} 10/10 1000 м
[St]
+1.5 +0.6 94 -4 -4 990.4 988.9
18 12.12 В 4 5000 м дымка {туман} 10/10 400 м
[St]
+1.6 +1.0 96 -3 -3 988.7 987.2
21 12.12 СВ 4 5000 м дымка {туман} 10/10 400 м
[St]
+1.3 +0.9 97 -4 -4 986.7 985.5
00 13.12 СВ 4 700 м в посл. час морось {туман} 10/10 800 м
[Sc diur, vesp]
+0.9 +0.7 99 -4 -4 985.9 984.4 +1.6 3
03 13.12 СВ 4 600 м в посл. час морось {туман} 10/10 800 м
[Sc diur, vesp]
+0.9 +0.9 100 -5 -5 984.9 983.4
06 13.12 З 7 1000 м дымка {морось} 10/10 800 м
[Sc diur, vesp]
+0.2 +0.1 99 -7 -7 986.0 984.5 3
09 13.12 ЮЗ 1 3000 м дымка {морось, туман} 10/10 900 м
[Sc diur, vesp]
+0.1 -0.1 99 -1 -1 988.0 986.5
12 13.12 СЗ 6 10 км {туман} 8/8 800 м
[Frnb]
+0.3 -0.1 97 -6 -6 987.2 985.7 +0.1 45
15 13.12 СЗ 3 800 м в посл. час туман 9/0
[]
+0.2 -0.2 97 -5 +1 987.2 985.7
18 13.12 З 6 10 км {туман} 10/10 400 м
[St]
+0.6 -0.1 95 -6 -6 986.0 984.5
21 13.12 З 11 10 км {туман} 10/10 400 м
[St]
+0.3 -0.7 93 -8 -8 986.6 985.1
00 14.12 З 10 10 км 8/8 1500 м
[Cu med, cong]
-0.1 -1.3 92 -9 -9 986.9 985.4 +0.6
03 14.12 З 7 10 км 10/10 400 м
[St]
-0.5 -1.5 93 -8 -8 986.5 985.0
06 14.12 З 8 10 км 10/10 400 м
[St]
-0.4 -1.3 94 -8 -8 987.0 985.5
09 14.12 З 7 10 км 3/3 400 м
[Cu med, cong]
-0.3 -1.5 92 -8 -7 987.4 985.9
12 14.12 З 3 10 км 8/4 400 м
[St Ac trans]
0.0 -1.3 91 -4 -2 986.8 985.3 -0.5 45
15 14.12 С 6 900 м в посл. час туман 9/0
[]
+0.1 -0.1 99 -7 -3 983.4 981.9
18 14.12 С 8 6000 м в посл. час ливневой снег {туман} 10/10 700 м
[Sc diur, vesp]
+0.7 +0.1 96 -7 -7 979.8 978.3 1
21 14.12 СВ 6 800 м в посл. час ливневой снег {туман} 10/10 600 м
[Sc diur, vesp]
+0.1 0.0 99 -7 -7 975.2 973.7
00 15.12 СВ 6 800 м в посл. час ливневой снег 10/10 600 м
[Sc diur, vesp]
0.0 0.0 100 -7 -7 967.8 966.3 +0.7 3
03 15.12 З 6 800 м в посл. час ливневой снег 10/10 600 м
[Sc diur, vesp]
-0.1 -0.1 100 -7 -7 966.2 964.7
06 15.12 З 8 900 м в посл. час туман {снег} 9/0
[]
-0.1 -0.1 100 -8 -8 967.2 965.7 1
09 15.12 З 7 6000 м дымка {снег} 10/10 600 м
[Sc]
-0.2 -0.3 99 -8 -8 967.4 965.9
12 15.12 З 6 1500 м дымка {туман} 10/10 600 м
[St]
-0.3 -0.3 100 -7 -7 967.1 965.6 -0.3 1 40
15 15.12 З 6 10 км {туман} 9/9 800 м
[Sc diur, vesp]
-0.2 -0.3 99 -7 -6 967.8 966.3
18 15.12 З 5 10 км 9/9 800 м
[Cu hum]
+0.1 -0.5 96 -6 -5 967.5 966.0
21 15.12 З 2 10 км 9/9 800 м
[Sc]
+0.6 -0.3 94 -2 -2 967.4 965.9
00 16.12 ЮВ 2 10 км 9/9 800 м
[Sc diur, vesp]
+0.5 -0.3 94 -3 -3 967.3 965.8 +0.6
03 16.12 Ю 10 10 км 10/10 700 м
[St]
-1.1 -6.6 66 -9 -9 967.1 965.6
06 16.12 Ю 7 10 км 10/10 700 м
[St]
-0.5 -7.9 57 -7 -7 967.1 965.6
09 16.12 Ю 10 10 км 10/10 800 м
[Sc]
-1.1 -7.9 60 -9 -9 967.5 966.0
12 16.12 Ю 10 10 км 10/10 700 м
[Sc diur, vesp]
-1.2 -7.7 61 -9 -9 968.6 967.1 -1.2 0.0 5
15 16.12 Ю 8 10 км 10/10 800 м
[Sc diur, vesp]
-0.8 -8.0 58 -8 -8 969.1 967.6
18 16.12 Ю 10 10 км 10/10 800 м
[St]
-0.7 -9.2 53 -8 -8 969.9 968.4
21 16.12 ЮЗ 7 10 км 9/9 800 м
[St]
-0.7 -7.9 58 -7 -7 970.9 969.4
00 17.12 СЗ 3 10 км 10/10 700 м
[Sc diur, vesp]
-0.9 -4.3 78 -5 -5 970.7 969.2 -0.7 0.0
03 17.12 СЗ 2 10 км 10/10 600 м
[Sc diur, vesp]
-1.0 -2.3 91 -5 -5 969.3 967.8
06 17.12 ЮЗ 3 10 км 10/10 700 м
[Sc diur, vesp]
-1.0 -2.7 88 -6 -6 968.3 966.8 0.0
09 17.12 ЮВ 9 10 км 9/9 800 м
[Cb calv]
-2.3 -8.3 63 -11 -11 968.5 967.0
12 17.12 Ю 11 10 км 10/10 800 м
[St]
-1.6 -8.5 59 -10 -10 968.5 967.0 -2.3 5
15 17.12 Ю 13 10 км 10/10 800 м
[St]
-1.6 -7.9 62 -11 -11 968.6 967.1
18 17.12 Ю 16 10 км 10/10 1000 м
[Sc diur, vesp]
-1.7 -8.3 61 -12 -12 969.2 967.7
21 17.12 ЮЗ 9 10 км 8/8 1000 м
[Sc diur, vesp]
-0.9 -6.3 67 -9 -8 971.3 969.8
00 18.12 З 5 10 км 10/10 800 м
[St]
-1.3 -2.7 90 -8 -8 972.5 971.0 -0.9 0.0
03 18.12 Ю 9 10 км 10/10 800 м
[St]
-1.6 -8.6 59 -10 -10 972.6 971.1
06 18.12 ЮЗ 10 10 км 8/8 800 м
[St]
-1.5 -9.2 56 -10 -10 972.6 971.1 0.0
09 18.12 ЮЗ 10 10 км 9/9 800 м
[Sc]
-1.2 -10.2 50 -9 -9 972.9 971.4
12 18.12 ЮЗ 7 10 км 9/9 800 м
[Sc]
-0.6 -8.9 53 -7 -7 973.4 971.9 -1.6 35
15 18.12 З 3 10 км 8/8 1000 м
[Sc diur, vesp]
+0.2 -4.6 70 -4 -2 974.1 972.6
18 18.12 З 3 10 км 6/6 900 м
[Cu hum]
+0.1 -5.8 64 -4 -1 975.3 973.8
21 18.12 ЮЗ 3 10 км 5/5 900 м
[Cu hum]
+0.3 -3.1 78 -4 -2 976.2 974.7
00 19.12 З 6 10 км 6/6 900 м
[Cu med, cong]
-0.1 -1.9 88 -7 -7 976.7 975.2 +0.3
03 19.12 З 5 10 км 8/8 1000 м
[Cu med, cong]
-0.5 -2.6 86 -7 -7 977.1 975.6

 

Местоположение метеостанции Bernardo o`Higgins (Антарктида): широта -63.31 долгота -57.90 высота над уровнем моря 10 м.

В архиве по умолчанию представлена погода в Bernardo o`Higgins за последнюю неделю. Архивные данные за месяц целиком и за предыдущие месяцы, начиная с января 2011 года, Вы можете получить, выбрав интересующий диапазон дат из раскрывающегося списка и нажав кнопку "Ввод!".


*Определитесь, кто Вы:
робот инопланетянин человек

Внимание! Время в таблицах - всемирное. Для получения местного времени необходимо прибавить поправку, которая в Bernardo o`Higgins равна 0 ч.

Смотрите также архив погоды в соседних городах и на ближайших метеорологических станциях:

Погода в Esperanza Base (Антарктида) (47 км)
Погода в Marambio Base (Антарктида) (118 км)
Погода в Carlini Base (Антарктида) (126 км)
Погода в Captain Arturo Prat Base (Антарктида) (127 км)
Погода в King Sejong (Антарктида) (130 км)
Погода в Great Wall (Антарктида) (134 км)
Погода в Bellingshausen (Антарктида) (134 км)
Погода в Dinamet-Uruguay (Антарктида) (134 км)
Погода в Frei Chi-Base (Антарктида) (137 км)
Погода в Juan Carlos Island (Антарктида) (145 км)

Пояснения к столбцам:

Ветер - указаны скорость ветра в м/с - средняя за 10 мин, порывы в срок и между сроками (в фигурных скобках) и направление, откуда дует ветер: С - северный, СВ - северо-восточный, В - восточный, ЮВ - юго-восточный, Ю - южный, ЮЗ - юго-западный, З - западный, СЗ - северо-западный.
Видимость - горизонтальная дальность видимости в метрах или километрах. При видимости от 1 до 10 км при отсутствии осадков обычно наблюдается дымка, при ухудшении видимости до 1 км и менее - туман. В сухую погоду видимость может ухудшаться дымом, пылью или мглою.
Явления - указаны атмосферные явления, наблюдавшиеся в срок или в последний час перед сроком; фигурными скобками обозначены явления, наблюдавшиеся между сроками (за 1-3 часа до срока); квадратными скобками обозначены град или гололедные отложения с указанием их диаметра в мм.
Облачность - указаны через наклонную черту общая и нижняя облачность в баллах и высота нижней границы облаков в метрах; квадратными скобками обозначены формы облаков: Ci - перистые, Cs - перисто-слоистые, Cc - перисто-кучевые, Ac - высококучевые, As - высокослоистые, Sc - слоисто-кучевые, Ns - слоисто-дождевые, Cu - кучевые, Cb - кучево-дождевые. Подробнее классификацию облаков см. в Атласе облаков (PDF).
T - Температура воздуха - температура, измеренная на высоте 2 м над землей.
Td - Температура точки росы - температура, при понижении до которой содержащийся в воздухе водяной пар достигнет насыщения.
f - Относительная влажность воздуха - влажноcть воздуха, измеренная на высоте 2 м над землей.
Te - Эффективная температура - температура, которую ощущает одетый по сезону человек в тени. Характеристика душности погоды. При расчете учитывается влияние влажности воздуха и скорости ветра на теплоощущения человека.
Tes - Эффективная температура на солнце - температура, которую ощущает человек, с поправкой на солнечный нагрев. Характеристика знойности погоды. Зависит от высоты солнца над горизонтом, облачности и скорости ветра. Ночью, в пасмурную погоду, а также при ветре 12 м/с и более поправка равна нулю.
P - Атмосферное давление - приведенное к уровню моря атмосферное давление.
Po - Атмосферное давление - измеренное на уровне метеостанции атмосферное давление.
Tmin - Минимальная температура - минимум температуры воздуха на высоте 2 м над землей.
Tmax - Максимальная температура - максимум температуры воздуха на высоте 2 м над землей.
R - Количество осадков - Количество выпавших осадков за период времени, мм. При наведении курсора мыши на число - период времени, за который выпало указанное количество осадков.
R24 - Количество осадков - Количество выпавших осадков за 24 часа, мм.
S - Снежный покров - Высота снежного покрова, см. При наведении курсора мыши на число - состояние снежного покрова и степень покрытия местности в баллах.